Time,TemperatureF,DewpointF,PressureIn,WindDirection,WindDirectionDegrees,WindSpeedMPH,WindSpeedGustMPH,Humidity,HourlyPrecipIn,Conditions,Clouds,dailyrainin,SoftwareType,DateUTC
2013-01-11 00:00:00,38.7,31.5,30.15,NW,306,0.0,2.0,75,0.00,,,0.00,Wunderground v.1.15,2013-01-11 08:00:00,
2013-01-11 00:05:00,38.5,31.3,30.15,NW,306,0.0,2.0,75,0.00,,,0.00,Wunderground v.1.15,2013-01-11 08:05:00,
2013-01-11 00:15:00,37.9,31.3,30.14,NW,309,0.0,2.0,77,0.00,,,0.00,Wunderground v.1.15,2013-01-11 08:15:00,
2013-01-11 00:20:00,37.5,31.3,30.14,NW,315,0.0,2.0,78,0.00,,,0.00,Wunderground v.1.15,2013-01-11 08:20:00,
2013-01-11 00:30:00,36.9,30.7,30.15,WNW,303,0.0,2.0,78,0.00,,,0.00,Wunderground v.1.15,2013-01-11 08:30:00,
2013-01-11 00:35:00,36.8,30.9,30.15,WNW,303,0.0,2.0,79,0.00,,,0.00,Wunderground v.1.15,2013-01-11 08:35:00,
2013-01-11 00:40:00,36.6,31.0,30.15,WNW,303,0.0,2.0,80,0.00,,,0.00,Wunderground v.1.15,2013-01-11 08:40:00,
2013-01-11 00:45:00,36.5,30.9,30.15,WNW,295,0.0,2.0,80,0.00,,,0.00,Wunderground v.1.15,2013-01-11 08:45:00,
2013-01-11 00:50:00,36.4,30.8,30.15,WNW,295,0.0,2.0,80,0.00,,,0.00,Wunderground v.1.15,2013-01-11 08:50:00,
2013-01-11 00:55:00,36.4,31.1,30.15,WNW,287,0.0,2.0,81,0.00,,,0.00,Wunderground v.1.15,2013-01-11 08:55:00,
2013-01-11 01:00:00,36.3,31.0,30.15,WNW,287,1.0,1.0,81,0.00,,,0.00,Wunderground v.1.15,2013-01-11 09:00:00,
2013-01-11 01:05:00,36.5,31.2,30.15,West,275,1.0,5.0,81,0.00,,,0.00,Wunderground v.1.15,2013-01-11 09:05:00,
2013-01-11 01:15:00,37.7,31.8,30.15,WSW,239,3.0,4.0,79,0.00,,,0.00,Wunderground v.1.15,2013-01-11 09:15:00,
2013-01-11 01:20:00,38.3,32.0,30.14,WNW,288,2.0,2.0,78,0.00,,,0.00,Wunderground v.1.15,2013-01-11 09:20:00,
2013-01-11 01:25:00,38.3,31.7,30.14,WNW,288,1.0,2.0,77,0.00,,,0.00,Wunderground v.1.15,2013-01-11 09:25:00,
2013-01-11 01:35:00,37.8,31.2,30.15,WNW,293,0.0,2.0,77,0.00,,,0.00,Wunderground v.1.15,2013-01-11 09:35:00,
2013-01-11 01:40:00,37.5,31.3,30.14,NW,325,0.0,2.0,78,0.00,,,0.00,Wunderground v.1.15,2013-01-11 09:40:00,
2013-01-11 01:45:00,37.2,31.3,30.15,NNW,342,1.0,2.0,79,0.00,,,0.00,Wunderground v.1.15,2013-01-11 09:45:00,
2013-01-11 01:50:00,36.9,31.0,30.15,NNW,342,0.0,2.0,79,0.00,,,0.00,Wunderground v.1.15,2013-01-11 09:50:00,
2013-01-11 01:55:00,36.6,30.7,30.15,NNW,346,0.0,2.0,79,0.00,,,0.00,Wunderground v.1.15,2013-01-11 09:55:00,
2013-01-11 02:00:00,36.3,30.7,30.15,NNW,346,1.0,2.0,80,0.00,,,0.00,Wunderground v.1.15,2013-01-11 10:00:00,
2013-01-11 02:10:00,35.7,30.7,30.15,NNW,346,1.0,1.0,82,0.00,,,0.00,Wunderground v.1.15,2013-01-11 10:10:00,
2013-01-11 02:20:00,35.1,30.5,30.15,North,1,0.0,2.0,83,0.00,,,0.00,Wunderground v.1.15,2013-01-11 10:20:00,
2013-01-11 02:25:00,34.8,30.2,30.15,North,1,0.0,2.0,83,0.00,,,0.00,Wunderground v.1.15,2013-01-11 10:25:00,
2013-01-11 02:30:00,34.6,30.3,30.15,North,1,0.0,2.0,84,0.00,,,0.00,Wunderground v.1.15,2013-01-11 10:30:00,
2013-01-11 02:35:00,34.4,30.4,30.15,NNE,13,0.0,2.0,85,0.00,,,0.00,Wunderground v.1.15,2013-01-11 10:35:00,
2013-01-11 02:45:00,34.4,30.6,30.15,NW,314,0.0,2.0,86,0.00,,,0.00,Wunderground v.1.15,2013-01-11 10:45:00,
2013-01-11 02:50:00,34.6,30.8,30.15,WNW,290,0.0,2.0,86,0.00,,,0.00,Wunderground v.1.15,2013-01-11 10:50:00,
2013-01-11 03:00:00,35.6,31.5,30.15,West,266,1.0,2.0,85,0.00,,,0.00,Wunderground v.1.15,2013-01-11 11:00:00,
2013-01-11 03:05:00,35.9,31.5,30.15,WNW,294,1.0,2.0,84,0.00,,,0.00,Wunderground v.1.15,2013-01-11 11:05:00,
2013-01-11 03:10:00,36.1,31.4,30.15,WNW,294,0.0,2.0,83,0.00,,,0.00,Wunderground v.1.15,2013-01-11 11:10:00,
2013-01-11 03:20:00,36.1,31.1,30.15,WNW,296,1.0,1.0,82,0.00,,,0.00,Wunderground v.1.15,2013-01-11 11:20:00,
2013-01-11 03:25:00,36.1,31.1,30.15,NW,305,1.0,2.0,82,0.00,,,0.00,Wunderground v.1.15,2013-01-11 11:25:00,
2013-01-11 03:30:00,36.1,30.8,30.15,NW,304,0.0,2.0,81,0.00,,,0.00,Wunderground v.1.15,2013-01-11 11:30:00,
2013-01-11 03:35:00,36.1,30.8,30.15,NW,304,0.0,2.0,81,0.00,,,0.00,Wunderground v.1.15,2013-01-11 11:35:00,
2013-01-11 03:40:00,36.0,31.0,30.15,NW,304,0.0,2.0,82,0.00,,,0.00,Wunderground v.1.15,2013-01-11 11:40:00,
2013-01-11 03:50:00,35.6,30.6,30.15,NW,304,0.0,2.0,82,0.00,,,0.00,Wunderground v.1.15,2013-01-11 11:50:00,
2013-01-11 04:00:00,35.4,30.5,30.15,NW,304,0.0,2.0,82,0.00,,,0.00,Wunderground v.1.15,2013-01-11 12:00:00,
2013-01-11 04:05:00,35.3,30.7,30.15,NNW,340,0.0,2.0,83,0.00,,,0.00,Wunderground v.1.15,2013-01-11 12:05:00,
2013-01-11 04:10:00,35.2,30.6,30.15,NNW,340,0.0,2.0,83,0.00,,,0.00,Wunderground v.1.15,2013-01-11 12:10:00,
2013-01-11 04:15:00,35.0,30.4,30.15,NW,316,0.0,2.0,83,0.00,,,0.00,Wunderground v.1.15,2013-01-11 12:15:00,
2013-01-11 04:25:00,35.2,30.6,30.15,NW,320,0.0,2.0,83,0.00,,,0.00,Wunderground v.1.15,2013-01-11 12:25:00,
2013-01-11 04:30:00,35.2,30.6,30.15,NW,320,0.0,2.0,83,0.00,,,0.00,Wunderground v.1.15,2013-01-11 12:30:00,
2013-01-11 04:35:00,35.0,30.4,30.15,NW,320,0.0,2.0,83,0.00,,,0.00,Wunderground v.1.15,2013-01-11 12:35:00,
2013-01-11 04:40:00,34.8,30.2,30.15,North,352,0.0,2.0,83,0.00,,,0.00,Wunderground v.1.15,2013-01-11 12:40:00,
2013-01-11 04:50:00,34.3,30.0,30.15,North,359,1.0,1.0,84,0.00,,,0.00,Wunderground v.1.15,2013-01-11 12:50:00,
2013-01-11 05:00:00,33.7,29.7,30.16,North,359,0.0,2.0,85,0.00,,,0.00,Wunderground v.1.15,2013-01-11 13:00:00,
2013-01-11 05:05:00,33.5,29.5,30.16,North,359,0.0,2.0,85,0.00,,,0.00,Wunderground v.1.15,2013-01-11 13:05:00,
2013-01-11 05:10:00,33.3,29.3,30.16,North,359,0.0,2.0,85,0.00,,,0.00,Wunderground v.1.15,2013-01-11 13:10:00,
2013-01-11 05:15:00,33.0,29.3,30.16,North,359,0.0,2.0,86,0.00,,,0.00,Wunderground v.1.15,2013-01-11 13:15:00,
2013-01-11 05:20:00,32.8,29.1,30.16,North,2,1.0,2.0,86,0.00,,,0.00,Wunderground v.1.15,2013-01-11 13:20:00,
2013-01-11 05:25:00,32.6,29.2,30.16,North,2,1.0,2.0,87,0.00,,,0.00,Wunderground v.1.15,2013-01-11 13:25:00,
2013-01-11 05:30:00,32.5,29.1,30.17,North,2,1.0,2.0,87,0.00,,,0.00,Wunderground v.1.15,2013-01-11 13:30:00,
2013-01-11 05:35:00,32.5,29.3,30.17,North,2,1.0,4.0,88,0.00,,,0.00,Wunderground v.1.15,2013-01-11 13:35:00,
2013-01-11 05:40:00,32.6,29.4,30.17,NE,34,1.0,2.0,88,0.00,,,0.00,Wunderground v.1.15,2013-01-11 13:40:00,
2013-01-11 05:50:00,32.9,30.0,30.17,NE,35,0.0,2.0,89,0.00,,,0.00,Wunderground v.1.15,2013-01-11 13:50:00,
2013-01-11 05:55:00,33.0,29.8,30.17,NNE,14,0.0,2.0,88,0.00,,,0.00,Wunderground v.1.15,2013-01-11 13:55:00,
2013-01-11 06:00:00,33.3,30.1,30.17,NNE,14,0.0,2.0,88,0.00,,,0.00,Wunderground v.1.15,2013-01-11 14:00:00,
2013-01-11 06:10:00,33.4,30.2,30.18,NNE,14,0.0,2.0,88,0.00,,,0.00,Wunderground v.1.15,2013-01-11 14:10:00,
2013-01-11 06:15:00,33.4,29.9,30.18,NNE,33,0.0,2.0,87,0.00,,,0.00,Wunderground v.1.15,2013-01-11 14:15:00,
2013-01-11 06:20:00,33.3,29.8,30.18,ENE,58,1.0,1.0,87,0.00,,,0.00,Wunderground v.1.15,2013-01-11 14:20:00,
2013-01-11 06:25:00,33.4,29.9,30.18,NE,35,1.0,2.0,87,0.00,,,0.00,Wunderground v.1.15,2013-01-11 14:25:00,
2013-01-11 06:30:00,33.7,30.2,30.18,NNE,22,1.0,1.0,87,0.00,,,0.00,Wunderground v.1.15,2013-01-11 14:30:00,
2013-01-11 06:40:00,34.0,30.3,30.18,NNE,30,1.0,2.0,86,0.00,,,0.00,Wunderground v.1.15,2013-01-11 14:40:00,
2013-01-11 06:50:00,34.0,30.0,30.18,NNE,31,0.0,2.0,85,0.00,,,0.00,Wunderground v.1.15,2013-01-11 14:50:00,
2013-01-11 06:55:00,34.0,30.0,30.19,NNE,30,0.0,2.0,85,0.00,,,0.00,Wunderground v.1.15,2013-01-11 14:55:00,
2013-01-11 07:00:00,33.9,30.2,30.19,NNE,18,0.0,2.0,86,0.00,,,0.00,Wunderground v.1.15,2013-01-11 15:00:00,
2013-01-11 07:05:00,33.9,29.9,30.19,NE,34,1.0,2.0,85,0.00,,,0.00,Wunderground v.1.15,2013-01-11 15:05:00,
2013-01-11 07:15:00,33.9,29.9,30.19,NW,323,0.0,2.0,85,0.00,,,0.00,Wunderground v.1.15,2013-01-11 15:15:00,
2013-01-11 07:20:00,33.9,30.2,30.19,NNW,331,0.0,2.0,86,0.00,,,0.00,Wunderground v.1.15,2013-01-11 15:20:00,
2013-01-11 07:25:00,33.9,30.2,30.19,NNW,331,0.0,2.0,86,0.00,,,0.00,Wunderground v.1.15,2013-01-11 15:25:00,
2013-01-11 07:30:00,33.8,29.8,30.19,NNW,331,0.0,2.0,85,0.00,,,0.00,Wunderground v.1.15,2013-01-11 15:30:00,
2013-01-11 07:40:00,33.7,30.0,30.20,NNW,332,0.0,2.0,86,0.00,,,0.00,Wunderground v.1.15,2013-01-11 15:40:00,
2013-01-11 07:50:00,33.5,30.0,30.20,North,352,1.0,2.0,87,0.00,,,0.00,Wunderground v.1.15,2013-01-11 15:50:00,
2013-01-11 07:55:00,33.5,30.0,30.20,North,352,0.0,2.0,87,0.00,,,0.00,Wunderground v.1.15,2013-01-11 15:55:00,
2013-01-11 08:00:00,33.5,30.0,30.20,North,352,0.0,2.0,87,0.00,,,0.00,Wunderground v.1.15,2013-01-11 16:00:00,
2013-01-11 08:05:00,33.6,30.1,30.20,North,352,0.0,2.0,87,0.00,,,0.00,Wunderground v.1.15,2013-01-11 16:05:00,
2013-01-11 08:10:00,33.6,30.1,30.21,North,352,1.0,2.0,87,0.00,,,0.00,Wunderground v.1.15,2013-01-11 16:10:00,
2013-01-11 08:15:00,33.8,30.6,30.21,North,359,1.0,2.0,88,0.00,,,0.00,Wunderground v.1.15,2013-01-11 16:15:00,
2013-01-11 08:25:00,34.2,31.0,30.21,North,359,0.0,2.0,88,0.00,,,0.00,Wunderground v.1.15,2013-01-11 16:25:00,
2013-01-11 08:30:00,34.6,31.4,30.21,North,359,0.0,2.0,88,0.00,,,0.00,Wunderground v.1.15,2013-01-11 16:30:00,
2013-01-11 08:35:00,34.8,31.3,30.22,North,359,0.0,2.0,87,0.00,,,0.00,Wunderground v.1.15,2013-01-11 16:35:00,
2013-01-11 08:45:00,36.0,31.9,30.22,North,359,0.0,2.0,85,0.00,,,0.00,Wunderground v.1.15,2013-01-11 16:45:00,
2013-01-11 08:50:00,36.7,32.6,30.22,North,359,0.0,2.0,85,0.00,,,0.00,Wunderground v.1.15,2013-01-11 16:50:00,
2013-01-11 09:00:00,38.2,32.9,30.21,North,359,0.0,2.0,81,0.00,,,0.00,Wunderground v.1.15,2013-01-11 17:00:00,
2013-01-11 09:05:00,38.9,32.9,30.21,North,359,0.0,2.0,79,0.00,,,0.00,Wunderground v.1.15,2013-01-11 17:05:00,
2013-01-11 09:15:00,40.3,32.7,30.21,WSW,245,1.0,1.0,74,0.00,,,0.00,Wunderground v.1.15,2013-01-11 17:15:00,
2013-01-11 09:40:00,42.0,33.6,30.21,West,280,0.0,0.0,72,0.00,,,0.00,Wunderground v.1.15,2013-01-11 17:40:00,
2013-01-11 09:50:00,42.4,33.3,30.21,West,268,1.0,1.0,70,0.00,,,0.00,Wunderground v.1.15,2013-01-11 17:50:00,
2013-01-11 10:30:00,43.6,33.7,30.21,SSW,206,3.0,3.0,68,0.00,,,0.00,Wunderground v.1.15,2013-01-11 18:30:00,
2013-01-11 10:55:00,43.8,34.6,30.20,South,179,2.0,2.0,70,0.00,,,0.00,Wunderground v.1.15,2013-01-11 18:55:00,
2013-01-11 11:00:00,44.0,34.5,30.20,South,175,2.0,2.0,69,0.00,,,0.00,Wunderground v.1.15,2013-01-11 19:00:00,
2013-01-11 11:05:00,44.2,34.3,30.20,South,175,1.0,2.0,68,0.00,,,0.00,Wunderground v.1.15,2013-01-11 19:05:00,
2013-01-11 11:10:00,44.5,34.2,30.20,South,175,0.0,0.0,67,0.00,,,0.00,Wunderground v.1.15,2013-01-11 19:10:00,
2013-01-11 11:15:00,44.7,34.0,30.20,ESE,113,1.0,1.0,66,0.00,,,0.00,Wunderground v.1.15,2013-01-11 19:15:00,
2013-01-11 11:20:00,44.9,33.8,30.19,SW,226,1.0,2.0,65,0.00,,,0.00,Wunderground v.1.15,2013-01-11 19:20:00,
2013-01-11 11:30:00,45.1,34.0,30.18,SW,222,2.0,7.0,65,0.00,,,0.00,Wunderground v.1.15,2013-01-11 19:30:00,
2013-01-11 11:35:00,45.1,33.2,30.18,SSW,198,3.0,7.0,63,0.00,,,0.00,Wunderground v.1.15,2013-01-11 19:35:00,
2013-01-11 11:40:00,45.2,33.7,30.18,West,261,3.0,3.0,64,0.00,,,0.00,Wunderground v.1.15,2013-01-11 19:40:00,
2013-01-11 11:45:00,45.6,33.7,30.17,SSE,166,3.0,3.0,63,0.00,,,0.00,Wunderground v.1.15,2013-01-11 19:45:00,
2013-01-11 11:50:00,46.0,34.1,30.17,WSW,242,4.0,4.0,63,0.00,,,0.00,Wunderground v.1.15,2013-01-11 19:50:00,
2013-01-11 11:55:00,46.4,34.9,30.17,SSW,195,3.0,6.0,64,0.00,,,0.00,Wunderground v.1.15,2013-01-11 19:55:00,
2013-01-11 12:00:00,47.0,34.6,30.17,SW,219,2.0,6.0,62,0.00,,,0.00,Wunderground v.1.15,2013-01-11 20:00:00,
2013-01-11 12:05:00,47.1,34.3,30.16,SW,231,2.0,6.0,61,0.00,,,0.00,Wunderground v.1.15,2013-01-11 20:05:00,
2013-01-11 12:15:00,47.4,33.8,30.16,NW,312,3.0,4.0,59,0.00,,,0.00,Wunderground v.1.15,2013-01-11 20:15:00,
2013-01-11 12:25:00,48.1,34.0,30.15,SW,225,2.0,6.0,58,0.00,,,0.00,Wunderground v.1.15,2013-01-11 20:25:00,
2013-01-11 12:30:00,48.0,33.9,30.15,SSW,200,2.0,6.0,58,0.00,,,0.00,Wunderground v.1.15,2013-01-11 20:30:00,
2013-01-11 12:35:00,48.0,34.8,30.15,SSW,203,3.0,6.0,60,0.00,,,0.00,Wunderground v.1.15,2013-01-11 20:35:00,
2013-01-11 12:40:00,48.2,34.5,30.14,SSE,166,4.0,4.0,59,0.00,,,0.00,Wunderground v.1.15,2013-01-11 20:40:00,
2013-01-11 12:50:00,48.3,34.2,30.14,SSE,164,2.0,6.0,58,0.00,,,0.00,Wunderground v.1.15,2013-01-11 20:50:00,
2013-01-11 12:55:00,48.2,34.1,30.14,SW,232,2.0,6.0,58,0.00,,,0.00,Wunderground v.1.15,2013-01-11 20:55:00,
2013-01-11 12:59:00,48.5,34.8,30.13,NW,315,2.0,-999.0,59,0.00,,,0.00,Wunderground v.1.15,2013-01-11 20:59:00,
2013-01-11 13:00:00,48.3,35.0,30.13,SW,216,3.0,3.0,60,0.00,,,0.00,Wunderground v.1.15,2013-01-11 21:00:00,
2013-01-11 13:04:00,48.5,34.8,30.13,WSW,248,3.0,-999.0,59,0.00,,,0.00,Wunderground v.1.15,2013-01-11 21:04:00,
2013-01-11 13:05:00,48.5,34.8,30.13,WSW,249,3.0,5.0,59,0.00,,,0.00,Wunderground v.1.15,2013-01-11 21:05:00,
2013-01-11 13:09:00,48.3,35.0,30.13,SSE,158,3.0,-999.0,60,0.00,,,0.00,Wunderground v.1.15,2013-01-11 21:09:00,
2013-01-11 13:14:00,48.6,34.9,30.14,SW,225,5.0,-999.0,59,0.00,,,0.00,Wunderground v.1.15,2013-01-11 21:14:00,
2013-01-11 13:15:00,48.3,35.0,30.13,West,266,3.0,6.0,60,0.00,,,0.00,Wunderground v.1.15,2013-01-11 21:15:00,
2013-01-11 13:19:00,48.4,34.3,30.13,SW,225,6.0,-999.0,58,0.00,,,0.00,Wunderground v.1.15,2013-01-11 21:19:00,
2013-01-11 13:20:00,48.6,34.9,30.13,SSW,213,4.0,10.0,59,0.00,,,0.00,Wunderground v.1.15,2013-01-11 21:20:00,
2013-01-11 13:24:00,48.3,35.0,30.13,SW,225,5.0,-999.0,60,0.00,,,0.00,Wunderground v.1.15,2013-01-11 21:24:00,
2013-01-11 13:29:00,48.8,35.1,30.13,West,270,3.0,-999.0,59,0.00,,,0.00,Wunderground v.1.15,2013-01-11 21:29:00,
2013-01-11 13:34:00,49.5,35.3,30.13,West,270,5.0,-999.0,58,0.00,,,0.00,Wunderground v.1.15,2013-01-11 21:34:00,
2013-01-11 13:39:00,49.7,35.1,30.13,SW,225,3.0,-999.0,57,0.00,,,0.00,Wunderground v.1.15,2013-01-11 21:39:00,
2013-01-11 13:44:00,49.7,35.5,30.12,SW,225,6.0,-999.0,58,0.00,,,0.00,Wunderground v.1.15,2013-01-11 21:44:00,
2013-01-11 13:49:00,49.5,35.3,30.12,South,180,5.0,-999.0,58,0.00,,,0.00,Wunderground v.1.15,2013-01-11 21:49:00,
2013-01-11 13:54:00,49.0,35.3,30.12,SW,225,6.0,-999.0,59,0.00,,,0.00,Wunderground v.1.15,2013-01-11 21:54:00,
2013-01-11 13:59:00,48.5,35.7,30.12,SW,225,7.0,-999.0,61,0.00,,,0.00,Wunderground v.1.15,2013-01-11 21:59:00,
2013-01-11 14:04:00,48.5,36.5,30.12,WSW,248,4.0,-999.0,63,0.00,,,0.00,Wunderground v.1.15,2013-01-11 22:04:00,
2013-01-11 14:09:00,48.8,37.2,30.12,SW,225,6.0,-999.0,64,0.00,,,0.00,Wunderground v.1.15,2013-01-11 22:09:00,
2013-01-11 14:14:00,49.2,37.5,30.12,WSW,248,5.0,-999.0,64,0.00,,,0.00,Wunderground v.1.15,2013-01-11 22:14:00,
2013-01-11 14:19:00,48.8,37.9,30.12,SW,225,7.0,-999.0,66,0.00,,,0.00,Wunderground v.1.15,2013-01-11 22:19:00,
2013-01-11 14:24:00,48.5,38.0,30.11,SW,225,6.0,-999.0,67,0.00,,,0.00,Wunderground v.1.15,2013-01-11 22:24:00,
2013-01-11 14:29:00,48.6,38.9,30.12,WSW,248,6.0,-999.0,69,0.00,,,0.00,Wunderground v.1.15,2013-01-11 22:29:00,
2013-01-11 14:34:00,48.2,39.2,30.11,WSW,248,6.0,-999.0,71,0.00,,,0.00,Wunderground v.1.15,2013-01-11 22:34:00,
2013-01-11 14:39:00,48.3,39.3,30.11,West,270,4.0,-999.0,71,0.00,,,0.00,Wunderground v.1.15,2013-01-11 22:39:00,
2013-01-11 14:44:00,48.3,39.7,30.11,SW,225,4.0,-999.0,72,0.00,,,0.00,Wunderground v.1.15,2013-01-11 22:44:00,
2013-01-11 14:49:00,48.0,39.4,30.11,SW,225,6.0,-999.0,72,0.00,,,0.00,Wunderground v.1.15,2013-01-11 22:49:00,
2013-01-11 14:54:00,47.9,39.7,30.11,SW,225,4.0,-999.0,73,0.00,,,0.00,Wunderground v.1.15,2013-01-11 22:54:00,
2013-01-11 14:59:00,48.0,39.8,30.11,SW,225,4.0,-999.0,73,0.00,,,0.00,Wunderground v.1.15,2013-01-11 22:59:00,
2013-01-11 15:04:00,48.3,39.7,30.11,SW,225,5.0,-999.0,72,0.00,,,0.00,Wunderground v.1.15,2013-01-11 23:04:00,
2013-01-11 15:09:00,48.8,40.2,30.11,SSW,203,4.0,-999.0,72,0.00,,,0.00,Wunderground v.1.15,2013-01-11 23:09:00,
2013-01-11 15:14:00,49.8,40.8,30.11,SW,225,5.0,-999.0,71,0.00,,,0.00,Wunderground v.1.15,2013-01-11 23:14:00,
2013-01-11 15:19:00,49.7,40.7,30.10,SW,225,6.0,-999.0,71,0.00,,,0.00,Wunderground v.1.15,2013-01-11 23:19:00,
2013-01-11 15:24:00,49.2,40.6,30.11,SW,225,7.0,-999.0,72,0.00,,,0.00,Wunderground v.1.15,2013-01-11 23:24:00,
2013-01-11 15:29:00,48.9,40.6,30.10,SW,225,6.0,-999.0,73,0.00,,,0.00,Wunderground v.1.15,2013-01-11 23:29:00,
2013-01-11 15:34:00,48.8,40.9,30.10,WSW,248,6.0,-999.0,74,0.00,,,0.00,Wunderground v.1.15,2013-01-11 23:34:00,
2013-01-11 15:39:00,48.9,41.3,30.10,West,270,6.0,-999.0,75,0.00,,,0.00,Wunderground v.1.15,2013-01-11 23:39:00,
2013-01-11 15:44:00,49.3,41.7,30.10,WSW,248,6.0,-999.0,75,0.00,,,0.00,Wunderground v.1.15,2013-01-11 23:44:00,
2013-01-11 15:49:00,49.3,41.7,30.10,SW,225,7.0,-999.0,75,0.00,,,0.00,Wunderground v.1.15,2013-01-11 23:49:00,
2013-01-11 15:54:00,49.2,42.0,30.10,WSW,248,7.0,-999.0,76,0.00,,,0.00,Wunderground v.1.15,2013-01-11 23:54:00,
2013-01-11 15:59:00,49.2,42.0,30.10,West,270,7.0,-999.0,76,0.00,,,0.00,Wunderground v.1.15,2013-01-11 23:59:00,
2013-01-11 16:04:00,49.0,41.8,30.10,SW,225,7.0,-999.0,76,0.00,,,0.00,Wunderground v.1.15,2013-01-12 00:04:00,
2013-01-11 16:05:00,49.2,42.0,30.10,West,281,7.0,7.0,76,0.00,,,0.00,Wunderground v.1.15,2013-01-12 00:05:00,
2013-01-11 16:09:00,48.3,41.1,30.10,WSW,248,9.0,-999.0,76,0.00,,,0.00,Wunderground v.1.15,2013-01-12 00:09:00,
2013-01-11 16:10:00,48.9,41.7,30.10,SW,229,7.0,11.0,76,0.00,,,0.00,Wunderground v.1.15,2013-01-12 00:10:00,
2013-01-11 16:14:00,48.1,41.6,30.10,SW,225,7.0,-999.0,78,0.00,,,0.00,Wunderground v.1.15,2013-01-12 00:14:00,
2013-01-11 16:19:00,47.8,41.6,30.09,SW,225,8.0,-999.0,79,0.00,,,0.00,Wunderground v.1.15,2013-01-12 00:19:00,
2013-01-11 16:20:00,48.1,41.6,30.10,SSW,210,8.0,8.0,78,0.00,,,0.00,Wunderground v.1.15,2013-01-12 00:20:00,
2013-01-11 16:24:00,47.9,41.7,30.10,WSW,248,5.0,-999.0,79,0.00,,,0.00,Wunderground v.1.15,2013-01-12 00:24:00,
2013-01-11 16:29:00,47.9,41.7,30.10,WSW,248,5.0,-999.0,79,0.00,,,0.00,Wunderground v.1.15,2013-01-12 00:29:00,
2013-01-11 16:50:00,46.9,41.7,30.09,SSW,212,5.0,5.0,82,0.00,,,0.00,Wunderground v.1.15,2013-01-12 00:50:00,
2013-01-11 16:55:00,46.8,41.6,30.09,WSW,256,4.0,5.0,82,0.00,,,0.00,Wunderground v.1.15,2013-01-12 00:55:00,
2013-01-11 17:00:00,46.6,41.1,30.09,WSW,255,4.0,4.0,81,0.00,,,0.00,Wunderground v.1.15,2013-01-12 01:00:00,
2013-01-11 17:10:00,46.2,41.0,30.09,WSW,245,3.0,3.0,82,0.00,,,0.00,Wunderground v.1.15,2013-01-12 01:10:00,
2013-01-11 17:15:00,46.0,40.8,30.09,WSW,254,2.0,3.0,82,0.00,,,0.00,Wunderground v.1.15,2013-01-12 01:15:00,
2013-01-11 17:20:00,45.9,40.7,30.09,SW,224,1.0,1.0,82,0.00,,,0.00,Wunderground v.1.15,2013-01-12 01:20:00,
2013-01-11 17:25:00,45.6,40.7,30.09,West,264,1.0,1.0,83,0.00,,,0.00,Wunderground v.1.15,2013-01-12 01:25:00,
2013-01-11 17:35:00,45.2,40.3,30.09,West,264,0.0,11.0,83,0.00,,,0.00,Wunderground v.1.15,2013-01-12 01:35:00,
2013-01-11 17:40:00,44.9,40.4,30.09,West,264,0.0,11.0,84,0.00,,,0.00,Wunderground v.1.15,2013-01-12 01:40:00,
2013-01-11 17:45:00,44.6,40.1,30.09,West,264,0.0,11.0,84,0.00,,,0.00,Wunderground v.1.15,2013-01-12 01:45:00,
2013-01-11 17:50:00,44.2,39.7,30.09,West,264,0.0,11.0,84,0.00,,,0.00,Wunderground v.1.15,2013-01-12 01:50:00,
2013-01-11 17:55:00,43.9,39.7,30.09,NW,309,0.0,11.0,85,0.00,,,0.00,Wunderground v.1.15,2013-01-12 01:55:00,
2013-01-11 18:00:00,43.7,39.8,30.09,NW,314,0.0,11.0,86,0.00,,,0.00,Wunderground v.1.15,2013-01-12 02:00:00,
2013-01-11 18:10:00,43.2,39.3,30.09,NNW,327,0.0,11.0,86,0.00,,,0.00,Wunderground v.1.15,2013-01-12 02:10:00,
2013-01-11 18:15:00,42.9,39.3,30.09,NNW,327,0.0,11.0,87,0.00,,,0.00,Wunderground v.1.15,2013-01-12 02:15:00,
2013-01-11 18:20:00,42.8,39.5,30.09,West,264,0.0,11.0,88,0.00,,,0.00,Wunderground v.1.15,2013-01-12 02:20:00,
2013-01-11 18:25:00,42.7,39.4,30.09,West,276,0.0,11.0,88,0.00,,,0.00,Wunderground v.1.15,2013-01-12 02:25:00,
2013-01-11 18:30:00,42.7,39.7,30.09,NW,305,1.0,1.0,89,0.00,,,0.00,Wunderground v.1.15,2013-01-12 02:30:00,
2013-01-11 18:40:00,42.8,39.8,30.09,NW,305,0.0,11.0,89,0.00,,,0.00,Wunderground v.1.15,2013-01-12 02:40:00,
2013-01-11 18:45:00,42.6,39.6,30.09,NW,305,0.0,11.0,89,0.00,,,0.00,Wunderground v.1.15,2013-01-12 02:45:00,
2013-01-11 18:50:00,42.4,39.1,30.09,NW,305,0.0,11.0,88,0.00,,,0.00,Wunderground v.1.15,2013-01-12 02:50:00,
2013-01-11 18:55:00,42.2,38.9,30.09,NW,305,0.0,11.0,88,0.00,,,0.00,Wunderground v.1.15,2013-01-12 02:55:00,
2013-01-11 19:00:00,42.0,38.7,30.09,NW,305,0.0,11.0,88,0.00,,,0.00,Wunderground v.1.15,2013-01-12 03:00:00,
2013-01-11 19:10:00,41.4,38.1,30.09,NW,305,0.0,11.0,88,0.00,,,0.00,Wunderground v.1.15,2013-01-12 03:10:00,
2013-01-11 19:15:00,41.1,38.1,30.09,NW,305,0.0,11.0,89,0.00,,,0.00,Wunderground v.1.15,2013-01-12 03:15:00,
2013-01-11 19:25:00,40.6,37.6,30.09,NW,326,0.0,11.0,89,0.00,,,0.00,Wunderground v.1.15,2013-01-12 03:25:00,
2013-01-11 19:30:00,40.3,37.6,30.09,NW,326,0.0,11.0,90,0.00,,,0.00,Wunderground v.1.15,2013-01-12 03:30:00,
2013-01-11 19:35:00,40.1,37.4,30.09,NW,326,0.0,11.0,90,0.00,,,0.00,Wunderground v.1.15,2013-01-12 03:35:00,
2013-01-11 19:45:00,39.6,36.9,30.09,NW,326,0.0,11.0,90,0.00,,,0.00,Wunderground v.1.15,2013-01-12 03:45:00,
2013-01-11 19:50:00,39.4,36.7,30.09,NW,326,0.0,11.0,90,0.00,,,0.00,Wunderground v.1.15,2013-01-12 03:50:00,
2013-01-11 20:00:00,39.0,36.6,30.09,NW,326,0.0,11.0,91,0.00,,,0.00,Wunderground v.1.15,2013-01-12 04:00:00,
2013-01-11 20:05:00,38.8,36.4,30.09,NW,326,0.0,11.0,91,0.00,,,0.00,Wunderground v.1.15,2013-01-12 04:05:00,
2013-01-11 20:15:00,38.5,36.1,30.09,NW,326,0.0,11.0,91,0.00,,,0.00,Wunderground v.1.15,2013-01-12 04:15:00,
2013-01-11 20:20:00,38.5,36.4,30.09,NNW,328,0.0,11.0,92,0.00,,,0.00,Wunderground v.1.15,2013-01-12 04:20:00,
2013-01-11 20:25:00,38.6,36.8,30.10,NNW,329,0.0,11.0,93,0.00,,,0.00,Wunderground v.1.15,2013-01-12 04:25:00,
2013-01-11 20:30:00,38.8,36.9,30.10,NNW,329,0.0,11.0,93,0.00,,,0.00,Wunderground v.1.15,2013-01-12 04:30:00,
2013-01-11 20:35:00,38.9,37.0,30.10,NNW,329,0.0,11.0,93,0.00,,,0.00,Wunderground v.1.15,2013-01-12 04:35:00,
2013-01-11 20:45:00,39.6,38.0,30.10,NNW,329,0.0,11.0,94,0.00,,,0.00,Wunderground v.1.15,2013-01-12 04:45:00,
2013-01-11 20:50:00,40.0,38.7,30.10,NNW,329,0.0,11.0,95,0.00,,,0.00,Wunderground v.1.15,2013-01-12 04:50:00,
2013-01-11 21:00:00,40.8,39.2,30.11,ENE,66,4.0,11.0,94,0.00,,,0.00,Wunderground v.1.15,2013-01-12 05:00:00,
2013-01-11 21:05:00,40.9,37.6,30.11,NE,37,7.0,11.0,88,0.00,,,0.00,Wunderground v.1.15,2013-01-12 05:05:00,
2013-01-11 21:10:00,40.9,37.0,30.11,NE,45,7.0,7.0,86,0.00,,,0.00,Wunderground v.1.15,2013-01-12 05:10:00,
2013-01-11 21:15:00,40.8,36.6,30.11,ENE,58,6.0,11.0,85,0.00,,,0.00,Wunderground v.1.15,2013-01-12 05:15:00,
2013-01-11 21:25:00,40.9,36.7,30.10,ENE,60,6.0,8.0,85,0.00,,,0.00,Wunderground v.1.15,2013-01-12 05:25:00,
2013-01-11 21:40:00,40.9,36.4,30.10,NNW,332,0.0,0.0,84,0.00,,,0.00,Wunderground v.1.15,2013-01-12 05:40:00,
2013-01-11 21:50:00,40.7,36.2,30.10,NNW,332,0.0,0.0,84,0.00,,,0.00,Wunderground v.1.15,2013-01-12 05:50:00,
2013-01-11 21:55:00,40.4,35.9,30.11,NNW,332,0.0,0.0,84,0.00,,,0.00,Wunderground v.1.15,2013-01-12 05:55:00,
2013-01-11 22:00:00,40.1,35.7,30.11,NNW,332,0.0,0.0,84,0.00,,,0.00,Wunderground v.1.15,2013-01-12 06:00:00,
2013-01-11 22:05:00,39.7,35.3,30.11,NNW,332,0.0,0.0,84,0.00,,,0.00,Wunderground v.1.15,2013-01-12 06:05:00,
2013-01-11 22:10:00,39.3,35.2,30.11,NNW,332,0.0,0.0,85,0.00,,,0.00,Wunderground v.1.15,2013-01-12 06:10:00,
2013-01-11 22:20:00,38.8,34.7,30.11,NNW,332,0.0,0.0,85,0.00,,,0.00,Wunderground v.1.15,2013-01-12 06:20:00,
2013-01-11 22:25:00,38.4,34.6,30.11,NNW,332,0.0,0.0,86,0.00,,,0.00,Wunderground v.1.15,2013-01-12 06:25:00,
2013-01-11 22:35:00,37.9,34.4,30.11,NNW,332,0.0,3.0,87,0.00,,,0.00,Wunderground v.1.15,2013-01-12 06:35:00,
2013-01-11 22:40:00,37.6,34.1,30.11,NNW,331,0.0,3.0,87,0.00,,,0.00,Wunderground v.1.15,2013-01-12 06:40:00,
2013-01-11 22:50:00,37.1,33.9,30.12,NE,44,0.0,3.0,88,0.00,,,0.00,Wunderground v.1.15,2013-01-12 06:50:00,
2013-01-11 22:55:00,36.8,33.6,30.12,NE,44,0.0,3.0,88,0.00,,,0.00,Wunderground v.1.15,2013-01-12 06:55:00,
2013-01-11 23:00:00,36.6,33.7,30.12,NE,44,0.0,3.0,89,0.00,,,0.00,Wunderground v.1.15,2013-01-12 07:00:00,
2013-01-11 23:05:00,36.4,33.5,30.12,NE,44,0.0,3.0,89,0.00,,,0.00,Wunderground v.1.15,2013-01-12 07:05:00,
2013-01-11 23:10:00,36.2,33.5,30.12,NE,44,0.0,3.0,90,0.00,,,0.00,Wunderground v.1.15,2013-01-12 07:10:00,
2013-01-11 23:15:00,36.1,33.5,30.12,NE,44,1.0,3.0,90,0.00,,,0.00,Wunderground v.1.15,2013-01-12 07:15:00,
2013-01-11 23:25:00,36.1,33.7,30.12,NE,44,0.0,3.0,91,0.00,,,0.00,Wunderground v.1.15,2013-01-12 07:25:00,
2013-01-11 23:30:00,36.1,33.7,30.13,NE,44,0.0,3.0,91,0.00,,,0.00,Wunderground v.1.15,2013-01-12 07:30:00,
2013-01-11 23:40:00,36.0,33.9,30.13,NE,44,0.0,3.0,92,0.00,,,0.00,Wunderground v.1.15,2013-01-12 07:40:00,
2013-01-11 23:45:00,36.0,33.9,30.13,NE,49,0.0,3.0,92,0.00,,,0.00,Wunderground v.1.15,2013-01-12 07:45:00,
2013-01-11 23:50:00,36.1,34.0,30.13,NE,49,0.0,3.0,92,0.00,,,0.00,Wunderground v.1.15,2013-01-12 07:50:00,
2013-01-11 23:55:00,36.0,33.9,30.13,NE,49,0.0,3.0,92,0.00,,,0.00,Wunderground v.1.15,2013-01-12 07:55:00,